Location: Budapest
(47.4979°N, 19.0402°E)
Time: 12:19:46
(UTC+02:00)

Envisat - Pass Details

Date: 22 May 2024
Orbit: 762 x 764 km, 98.3° (Epoch: 19 June)

Event Time Altitude Azimuth Distance (km) Brightness Sun altitude
Rises 02:30:39 0° 33° (NNE) 3,238 8.0 -17.7°
Reaches altitude 10° 02:34:42 10° 65° (ENE) 2,304 6.2 -17.4°
Maximum altitude 02:36:28 12° 86° (E) 2,182 5.8 -17.2°
Drops below altitude 10° 02:38:14 10° 107° (ESE) 2,297 5.6 -17.1°
Sets 02:42:15 0° 139° (SE) 3,215 6.0 -16.8°
